Location: Unspecified
(0.0000°N, 0.0000°E)
Time: 08:17:21
(UTC+02:00)

Cosmos 1908 Rocket - Visible Passes

Search period start: 25 August 2016 00:00
Search period end: 04 September 2016 00:00
Orbit: 607 x 632 km, 82.5° (Epoch: 24 August)

Date Brightness Start Highest point End Pass type
(mag) Time Alt. Az. Time Alt. Az. Time Alt. Az.
25 Aug 6.3 05:41:31 10° NE 05:44:19 17° E 05:47:07 10° SE visible
25 Aug 4.9 07:19:02 10° NW 07:21:53 17° W 07:24:46 10° SW visible
26 Aug 4.9 05:57:44 10° NNE 06:01:45 38° E 06:05:47 10° SSE visible
27 Aug 5.5 06:14:53 10° N 06:16:02 18° N 06:16:02 18° N visible
